Location: Unspecified
(0.0000°N, 0.0000°E)
Time: 20:11:56
(UTC+00:00)

Vanguard 1 - Pass Details

Date: 22 June 2025
Orbit: 649 x 3822 km, 34.2° (Epoch: 12 July)

Event Time Altitude Azimuth Distance (km) Brightness Sun altitude
Exits shadow 04:15:34 39° 181° (S) 1,202 10.2 -24.3°
Maximum altitude 04:16:57 48° 140° (SE) 1,125 10.4 -24.0°
Drops below altitude 10° 04:23:57 10° 67° (ENE) 3,258 13.9 -22.4°
Sets 04:27:50 0° 62° (ENE) 4,704 15.1 -21.5°
